Location: Shenandoah County Park
(38.9356°N, 78.4524°W)
Time: 18:26:41
(UTC-05:00)

A-11 Canister half - Pass Details

Date: 15 December 2023
Orbit: 1526 x 1682 km, 47.3° (Epoch: 01 March)

Event Time Altitude Azimuth Distance (km) Brightness Sun altitude
Rises 00:03:37 0° 298° (WNW) 4,922 - -74.3°
Reaches altitude 10° 00:07:05 10° 291° (WNW) 3,918 - -74.3°
Maximum altitude 00:15:59 38° 228° (SW) 2,304 - -74.2°
Drops below altitude 10° 00:24:40 10° 165° (SSE) 3,802 - -74.0°
Sets 00:28:00 0° 157° (SSE) 4,762 - -73.8°
